Cloquet, MN

4:22 PM CST on December 12, 2019 (GMT -0600)
Cloquet Carlton County

Weather History for KCOQ - October, 2019

Change the Weather History Date:

Tuesday, October 29, 2019

  Actual Average Record
Temperature  
Mean Temperature 27 °F -  
Max Temperature 33 °F 43 °F 60 °F (2005)
Min Temperature 21 °F 30 °F 21 °F (2013)
Degree Days  
Heating Degree Days 38    
Moisture  
Dew Point 13 °F    
Average Humidity 56    
Maximum Humidity 86    
Minimum Humidity 32    
Precipitation  
Precipitation 0.00 in - - ()
Sea Level Pressure  
Sea Level Pressure 30.14 in    
Wind  
Wind Speed 5 mph ()    
Max Wind Speed 13 mph    
Max Gust Speed 20 mph    
Visibility 10.0 miles    
Events      
Averages and records for this station are not official NWS values.
T = Trace of Precipitation, MM = Missing Value Source: Averaged Metar Reports

Daily Weather History Graph

Daily Weather History Graph

Search for Another Location

Airport or City:

Astronomy

Oct. 29, 2019 Rise Set
Actual Time 7:47 AM CDT 5:59 PM CDT
Civil Twilight 7:16 AM CDT 6:30 PM CDT
Nautical Twilight 6:40 AM CDT 7:06 PM CDT
Astronomical Twilight 6:05 AM CDT 7:41 PM CDT
Moon 9:25 AM CDT (10/29) 7:18 PM CDT (10/29)
Length of Visible Light 11h 14m
Length of Day
10h 11m
Waxing Crescent, 3% of the Moon is Illuminated
Oct 29
Waxing Crescent
Nov 4
First Quarter
Nov 12
Full
Nov 19
Last Quarter
Nov 26
New

Hourly Weather History & Observations

Time (CDT) Temp. Windchill Dew Point Humidity Pressure Visibility Wind Dir Wind Speed Gust Speed Precip Events Conditions
12:15 AM 26.6 °F - 19.4 °F 74% 30.05 in 10.0 mi Calm Calm - N/A   Clear
12:35 AM 26.6 °F - 19.4 °F 74% 30.06 in 10.0 mi Calm Calm - N/A   Clear
12:55 AM 26.6 °F 22.6 °F 17.6 °F 69% 30.06 in 10.0 mi West 3.5 mph - N/A   Clear
12:56 AM 26.6 °F 22.6 °F 17.6 °F 69% 30.06 in 10.0 mi West 3.5 mph - N/A   Clear
1:15 AM 26.6 °F - 17.6 °F 69% 30.06 in 10.0 mi Calm Calm - N/A   Clear
1:16 AM 26.6 °F - 17.6 °F 69% 30.06 in 10.0 mi Calm Calm - N/A   Clear
1:35 AM 26.6 °F - 17.6 °F 69% 30.06 in 10.0 mi Calm Calm - N/A   Clear
1:36 AM 26.6 °F - 17.6 °F 69% 30.07 in 10.0 mi Calm Calm - N/A   Clear
1:55 AM 26.6 °F 22.6 °F 17.6 °F 69% 30.07 in 10.0 mi SSW 3.5 mph - N/A   Clear
2:15 AM 26.6 °F 22.6 °F 17.6 °F 69% 30.07 in 10.0 mi SW 3.5 mph - N/A   Clear
2:35 AM 26.6 °F 22.6 °F 17.6 °F 69% 30.08 in 10.0 mi SSW 3.5 mph - N/A   Clear
2:55 AM 26.6 °F - 17.6 °F 69% 30.07 in 10.0 mi Calm Calm - N/A   Clear
3:15 AM 26.6 °F - 17.6 °F 69% 30.07 in 10.0 mi Calm Calm - N/A   Clear
3:16 AM 26.6 °F - 17.6 °F 69% 30.07 in 10.0 mi Calm Calm - N/A   Clear
3:35 AM 24.8 °F 20.5 °F 17.6 °F 74% 30.07 in 10.0 mi SW 3.5 mph - N/A   Clear
3:55 AM 24.8 °F - 17.6 °F 74% 30.07 in 10.0 mi Calm Calm - N/A   Clear
3:56 AM 24.8 °F - 17.6 °F 74% 30.07 in 10.0 mi Calm Calm - N/A   Clear
4:15 AM 24.8 °F 20.5 °F 17.6 °F 74% 30.06 in 10.0 mi SW 3.5 mph - N/A   Clear
4:35 AM 24.8 °F 19.1 °F 17.6 °F 74% 30.06 in 10.0 mi WSW 4.6 mph - N/A   Clear
4:55 AM 24.8 °F 19.1 °F 17.6 °F 74% 30.06 in 10.0 mi WSW 4.6 mph - N/A   Clear
5:15 AM 24.8 °F 19.1 °F 17.6 °F 74% 30.07 in 10.0 mi WSW 4.6 mph - N/A   Clear
5:35 AM 24.8 °F 19.1 °F 17.6 °F 74% 30.07 in 10.0 mi SW 4.6 mph - N/A   Clear
5:36 AM 24.8 °F 20.5 °F 17.6 °F 74% 30.07 in 10.0 mi SW 3.5 mph - N/A   Clear
5:55 AM 24.8 °F 20.5 °F 17.6 °F 74% 30.07 in 10.0 mi SW 3.5 mph - N/A   Clear
5:56 AM 24.8 °F 19.1 °F 17.6 °F 74% 30.07 in 10.0 mi SW 4.6 mph - N/A   Clear
6:15 AM 24.8 °F 19.1 °F 17.6 °F 74% 30.08 in 10.0 mi SW 4.6 mph - N/A   Clear
6:16 AM 24.8 °F 19.1 °F 17.6 °F 74% 30.08 in 10.0 mi SW 4.6 mph - N/A   Clear
6:35 AM 23.0 °F 15.8 °F 17.6 °F 80% 30.09 in 10.0 mi SW 5.8 mph - N/A   Clear
6:36 AM 23.0 °F 15.8 °F 17.6 °F 80% 30.09 in 10.0 mi SW 5.8 mph - N/A   Clear
6:55 AM 23.0 °F 17.0 °F 17.6 °F 80% 30.09 in 10.0 mi SW 4.6 mph - N/A   Clear
7:15 AM 23.0 °F 15.8 °F 17.6 °F 80% 30.10 in 10.0 mi SW 5.8 mph - N/A   Clear
7:16 AM 23.0 °F 15.8 °F 17.6 °F 80% 30.10 in 10.0 mi SW 5.8 mph - N/A   Clear
7:35 AM 21.2 °F 14.9 °F 17.6 °F 86% 30.10 in 10.0 mi SW 4.6 mph - N/A   Clear
7:55 AM 21.2 °F 14.9 °F 17.6 °F 86% 30.11 in 10.0 mi SW 4.6 mph - N/A   Clear
8:15 AM 21.2 °F 14.9 °F 17.6 °F 86% 30.10 in 10.0 mi West 4.6 mph - N/A   Clear
8:55 AM 24.8 °F 17.9 °F 17.6 °F 74% 30.11 in 10.0 mi West 5.8 mph - N/A   Clear
9:15 AM 26.6 °F 16.8 °F 17.6 °F 69% 30.11 in 10.0 mi WNW 10.4 mph - N/A   Clear
9:35 AM 26.6 °F 15.7 °F 15.8 °F 64% 30.13 in 10.0 mi West 12.7 mph 17.3 mph N/A   Clear
9:36 AM 26.6 °F 16.2 °F 15.8 °F 64% 30.13 in 10.0 mi West 11.5 mph 17.3 mph N/A   Clear
9:55 AM 28.4 °F 19.1 °F 12.2 °F 51% 30.13 in 10.0 mi WNW 10.4 mph 17.3 mph N/A   Clear
9:56 AM 28.4 °F 18.5 °F 12.2 °F 51% 30.13 in 10.0 mi WNW 11.5 mph 17.3 mph N/A   Clear
10:15 AM 28.4 °F 19.1 °F 12.2 °F 51% 30.14 in 10.0 mi West 10.4 mph 17.3 mph N/A   Clear
10:16 AM 28.4 °F 19.7 °F 12.2 °F 51% 30.14 in 10.0 mi WNW 9.2 mph 16.1 mph N/A   Clear
10:35 AM 30.2 °F 20.8 °F 12.2 °F 47% 30.14 in 10.0 mi West 11.5 mph 16.1 mph N/A   Clear
10:55 AM 28.4 °F 19.1 °F 12.2 °F 51% 30.15 in 10.0 mi West 10.4 mph - N/A   Clear
11:16 AM 30.2 °F 21.3 °F 14.0 °F 51% 30.16 in 10.0 mi West 10.4 mph - N/A   Clear
11:35 AM 30.2 °F 21.3 °F 15.8 °F 55% 30.17 in 10.0 mi West 10.4 mph - N/A   Clear
11:55 AM 30.2 °F 20.8 °F 12.2 °F 47% 30.17 in 10.0 mi SW 11.5 mph - N/A   Clear
11:56 AM 30.2 °F 20.2 °F 12.2 °F 47% 30.17 in 10.0 mi SW 12.7 mph - N/A   Clear
12:15 PM 30.2 °F 20.2 °F 12.2 °F 47% 30.17 in 10.0 mi WSW 12.7 mph - N/A   Clear
12:35 PM 30.2 °F 21.3 °F 14.0 °F 51% 30.16 in 10.0 mi West 10.4 mph - N/A   Clear
12:55 PM 30.2 °F 21.3 °F 12.2 °F 47% 30.17 in 10.0 mi WSW 10.4 mph - N/A   Clear
1:15 PM 32.0 °F 22.5 °F 10.4 °F 41% 30.17 in 10.0 mi West 12.7 mph 16.1 mph N/A   Clear
1:35 PM 32.0 °F 23.6 °F 10.4 °F 41% 30.16 in 10.0 mi West 10.4 mph - N/A   Clear
1:36 PM 32.0 °F 24.2 °F 10.4 °F 41% 30.16 in 10.0 mi West 9.2 mph - N/A   Clear
1:55 PM 32.0 °F 23.6 °F 8.6 °F 38% 30.16 in 10.0 mi WSW 10.4 mph 19.6 mph N/A   Clear
2:36 PM 33.8 °F 25.3 °F 10.4 °F 38% 30.16 in 10.0 mi WSW 11.5 mph - N/A   Clear
2:55 PM 33.8 °F 24.8 °F 10.4 °F 38% 30.16 in 10.0 mi West 12.7 mph 19.6 mph N/A   Clear
3:15 PM 33.8 °F 25.3 °F 6.8 °F 32% 30.16 in 10.0 mi West 11.5 mph 18.4 mph N/A   Clear
3:16 PM 33.8 °F 25.8 °F 6.8 °F 32% 30.16 in 10.0 mi WSW 10.4 mph 18.4 mph N/A   Clear
3:55 PM 33.8 °F 27.0 °F 6.8 °F 32% 30.16 in 10.0 mi WSW 8.1 mph 16.1 mph N/A   Clear
3:56 PM 33.8 °F 27.0 °F 6.8 °F 32% 30.16 in 10.0 mi WSW 8.1 mph 16.1 mph N/A   Clear
4:15 PM 33.8 °F 25.8 °F 6.8 °F 32% 30.16 in 10.0 mi WSW 10.4 mph - N/A   Clear
4:16 PM 33.8 °F 27.0 °F 6.8 °F 32% 30.16 in 10.0 mi WSW 8.1 mph - N/A   Clear
4:35 PM 33.8 °F 28.6 °F 6.8 °F 32% 30.16 in 10.0 mi WSW 5.8 mph - N/A   Clear
4:36 PM 33.8 °F 27.7 °F 6.8 °F 32% 30.16 in 10.0 mi WSW 6.9 mph - N/A   Clear
4:55 PM 33.8 °F 27.0 °F 6.8 °F 32% 30.15 in 10.0 mi SW 8.1 mph - N/A   Clear
4:56 PM 33.8 °F 27.0 °F 6.8 °F 32% 30.15 in 10.0 mi SW 8.1 mph - N/A   Clear
5:15 PM 33.8 °F 28.6 °F 8.6 °F 35% 30.15 in 10.0 mi SW 5.8 mph - N/A   Clear
5:35 PM 32.0 °F 24.8 °F 6.8 °F 35% 30.16 in 10.0 mi WSW 8.1 mph - N/A   Clear
5:36 PM 32.0 °F 24.8 °F 6.8 °F 35% 30.16 in 10.0 mi WSW 8.1 mph - N/A   Clear
5:55 PM 30.2 °F 23.4 °F 6.8 °F 37% 30.16 in 10.0 mi WSW 6.9 mph - N/A   Clear
6:15 PM 30.2 °F 22.6 °F 6.8 °F 37% 30.17 in 10.0 mi WSW 8.1 mph - N/A   Clear
6:35 PM 30.2 °F 22.6 °F 6.8 °F 37% 30.19 in 10.0 mi WSW 8.1 mph - N/A   Clear
6:36 PM 30.2 °F 22.6 °F 6.8 °F 37% 30.19 in 10.0 mi WSW 8.1 mph - N/A   Clear
6:55 PM 30.2 °F 23.4 °F 6.8 °F 37% 30.19 in 10.0 mi WSW 6.9 mph - N/A   Clear
6:56 PM 30.2 °F 23.4 °F 6.8 °F 37% 30.19 in 10.0 mi WSW 6.9 mph - N/A   Clear
7:15 PM 28.4 °F 21.2 °F 8.6 °F 43% 30.21 in 10.0 mi WSW 6.9 mph - N/A   Clear
7:35 PM 28.4 °F 20.4 °F 8.6 °F 43% 30.21 in 10.0 mi WSW 8.1 mph - N/A   Clear
7:55 PM 28.4 °F 23.3 °F 10.4 °F 47% 30.21 in 10.0 mi West 4.6 mph - N/A   Clear
8:15 PM 28.4 °F 22.2 °F 10.4 °F 47% 30.22 in 10.0 mi West 5.8 mph - N/A   Clear
8:16 PM 28.4 °F 23.3 °F 10.4 °F 47% 30.22 in 10.0 mi West 4.6 mph - N/A   Clear
8:35 PM 26.6 °F 20.0 °F 10.4 °F 51% 30.22 in 10.0 mi West 5.8 mph - N/A   Clear
8:55 PM 28.4 °F 22.2 °F 10.4 °F 47% 30.23 in 10.0 mi WSW 5.8 mph - N/A   Clear
8:56 PM 28.4 °F 21.2 °F 10.4 °F 47% 30.23 in 10.0 mi WSW 6.9 mph - N/A   Clear
9:15 PM 26.6 °F 21.2 °F 10.4 °F 51% 30.23 in 10.0 mi West 4.6 mph - N/A   Clear
9:16 PM 26.6 °F 21.2 °F 10.4 °F 51% 30.23 in 10.0 mi West 4.6 mph - N/A   Clear
9:35 PM 26.6 °F 19.1 °F 10.4 °F 51% 30.23 in 10.0 mi WSW 6.9 mph - N/A   Clear
9:36 PM 26.6 °F 20.0 °F 10.4 °F 51% 30.23 in 10.0 mi WSW 5.8 mph - N/A   Clear
9:55 PM 26.6 °F 18.2 °F 10.4 °F 51% 30.24 in 10.0 mi West 8.1 mph - N/A   Clear
10:15 PM 24.8 °F 16.9 °F 12.2 °F 59% 30.24 in 10.0 mi West 6.9 mph - N/A   Clear
10:35 PM 26.6 °F 18.2 °F 12.2 °F 55% 30.25 in 10.0 mi West 8.1 mph 16.1 mph N/A   Clear
10:36 PM 26.6 °F 18.2 °F 12.2 °F 55% 30.25 in 10.0 mi West 8.1 mph - N/A   Clear
10:55 PM 24.8 °F 16.9 °F 12.2 °F 59% 30.25 in 10.0 mi WSW 6.9 mph - N/A   Clear
11:15 PM 24.8 °F 16.9 °F 12.2 °F 59% 30.26 in 10.0 mi WSW 6.9 mph - N/A   Clear
11:16 PM 24.8 °F 16.9 °F 12.2 °F 59% 30.26 in 10.0 mi WSW 6.9 mph - N/A   Clear
11:35 PM 24.8 °F 17.9 °F 12.2 °F 59% 30.25 in 10.0 mi WSW 5.8 mph - N/A   Clear
11:55 PM 23.0 °F 17.0 °F 12.2 °F 63% 30.25 in 10.0 mi WSW 4.6 mph - N/A   Clear